DW8790 Maspalomas ES current weather conditions

sailwx.info

Wind from 088 at 6 knots gusting 17

Air temperature 31.1° C
Dewpoint 11.0° C

Last reported at 2017-Jun-27 08:10 UTC.
Time now 2017-Jun-27 08:43 UTC

Location: N 27°46' W 015°34'.
View on Google Maps.

See reports from other nearby stations

  
Tides and Currents Weather Stations Pressure Air Temp Water Temp Dewpoint Dewpoint Depression Visibility Wind Speed Wind Dir Waves Ship Positions
date/time (UTC)wind fromknots sea level pressurealtimeterstation pressurevisibilityair tempwater tempwave heightnotes
2017-Jun-27 08:10 088 6 gusting 17 31.1
2017-Jun-27 08:05 097 6 gusting 13 30.6
2017-Jun-27 08:00 079 6 gusting 11 30.6
2017-Jun-27 07:55 084 7 gusting 13 30.6
2017-Jun-27 07:50 081 7 gusting 13 30.6
2017-Jun-27 07:45 080 5 gusting 13 30.6
2017-Jun-27 07:40 079 6 gusting 12 30.0
2017-Jun-27 07:35 086 6 gusting 11 29.4
2017-Jun-27 07:30 123 4 gusting 12 30.0
2017-Jun-27 07:25 134 3 gusting 7 30.6
2017-Jun-27 07:20 121 4 gusting 13 31.1
2017-Jun-27 07:15 102 5 gusting 13 31.1
2017-Jun-27 07:10 051 30.6
2017-Jun-27 07:00 026 4 gusting 7 30.6
2017-Jun-27 06:55 021 4 gusting 10 30.6
2017-Jun-27 06:50 037 6 gusting 17 30.6
2017-Jun-27 06:45 033 7 gusting 12 30.0
2017-Jun-27 06:40 030 6 gusting 11 30.0
2017-Jun-27 06:35 036 5 gusting 13 29.4
2017-Jun-27 06:30 027 6 gusting 13 29.4
2017-Jun-27 06:25 040 8 gusting 15 28.9
2017-Jun-27 06:20 029 7 gusting 17 28.3
2017-Jun-27 06:15 029 8 gusting 19 28.3
2017-Jun-27 06:10 046 8 gusting 15 27.8
2017-Jun-27 06:05 046 7 gusting 17 27.2
2017-Jun-27 06:00 072 6 gusting 13 26.7
2017-Jun-27 05:55 086 5 gusting 11 26.1
2017-Jun-27 05:50 077 6 gusting 11 25.6
2017-Jun-27 05:45 081 6 gusting 12 25.6
2017-Jun-27 05:40 088 1 gusting 10 25.6
2017-Jun-27 05:35 126 2 gusting 6 25.6
2017-Jun-27 05:30 142 5 gusting 7 25.6
2017-Jun-27 05:25 144 0 gusting 7 25.6
2017-Jun-27 05:20 138 1 gusting 6 24.4
2017-Jun-27 05:15 054 1 gusting 6 24.4
2017-Jun-27 05:10 331 3 gusting 5 24.4
2017-Jun-27 05:05 298 2 gusting 6 24.4
2017-Jun-27 05:00 013 24.4
2017-Jun-27 04:55 286 0 gusting 2 24.4
2017-Jun-27 04:45 225 1 gusting 5 24.4
2017-Jun-27 04:40 258 4 gusting 6 24.4
2017-Jun-27 04:35 304 2 gusting 6 25.0
2017-Jun-27 04:30 291 2 gusting 6 26.1
2017-Jun-27 04:25 268 0 gusting 6 26.7
2017-Jun-27 04:20 044 6 gusting 10 26.7
2017-Jun-27 04:15 093 5 gusting 14 27.2
2017-Jun-27 04:10 066 7 gusting 19 27.2
2017-Jun-27 04:05 080 6 gusting 13 27.2
2017-Jun-27 03:55 074 9 gusting 20 27.2
2017-Jun-27 03:50 074 8 gusting 13 27.2
2017-Jun-27 03:45 050 3 gusting 13 26.7
2017-Jun-27 03:40 068 5 gusting 10 25.6
2017-Jun-27 03:35 045 2 gusting 7 25.0
2017-Jun-27 03:30 051 0 gusting 5 24.4
2017-Jun-27 03:20 207 23.9
2017-Jun-27 03:15 218 23.9
2017-Jun-27 03:10 302 23.9
2017-Jun-27 03:05 302 1 gusting 2 23.9
2017-Jun-27 03:00 297 1 gusting 4 23.9
2017-Jun-27 02:55 281 1 gusting 2 23.9
2017-Jun-27 02:50 281 1 gusting 6 23.9
2017-Jun-27 02:45 263 2 gusting 6 23.9
2017-Jun-27 02:40 242 2 gusting 4 23.9
2017-Jun-27 02:35 236 0 gusting 2 23.9
2017-Jun-27 02:30 236 23.9
2017-Jun-27 02:25 236 23.9
2017-Jun-27 02:20 236 23.9
2017-Jun-27 02:15 236 23.9
2017-Jun-27 02:10 236 23.9
2017-Jun-27 02:05 236 23.9
2017-Jun-27 02:00 236 23.9
2017-Jun-27 01:55 236 23.9
2017-Jun-27 01:50 236 23.9
2017-Jun-27 01:45 236 23.9
2017-Jun-27 01:40 236 23.9
2017-Jun-27 01:35 236 24.4
2017-Jun-27 01:30 236 1 gusting 2 24.4
2017-Jun-27 01:25 236 1 gusting 2 24.4
2017-Jun-27 01:20 236 1 gusting 2 24.4
2017-Jun-27 01:15 236 1 gusting 2 24.4
2017-Jun-27 01:10 236 1 gusting 2 23.9
2017-Jun-27 01:05 236 23.9
2017-Jun-27 01:00 236 23.9
2017-Jun-27 00:45 236 23.9
2017-Jun-27 00:35 236 0 gusting 2 23.9
2017-Jun-27 00:30 236 23.9
2017-Jun-27 00:25 236 23.9
2017-Jun-27 00:20 236 23.9
2017-Jun-27 00:15 236 0 gusting 2 23.9
2017-Jun-27 00:10 236 0 gusting 2 23.9
2017-Jun-27 00:05 236 0 gusting 2 23.9
2017-Jun-27 00:00 236 2 gusting 2 23.9
2017-Jun-26 23:55 232 1 gusting 2 23.9
2017-Jun-26 23:50 232 1 gusting 2 23.9
2017-Jun-26 23:45 237 1 gusting 2 23.9
2017-Jun-26 23:40 219 23.9
2017-Jun-26 23:35 219 0 gusting 1 23.9
2017-Jun-26 23:30 219 0 gusting 2 23.9
2017-Jun-26 23:25 219 23.9
2017-Jun-26 23:20 130 23.9
2017-Jun-26 23:10 130 23.9
2017-Jun-26 23:05 244 24.4
2017-Jun-26 23:00 244 23.9
2017-Jun-26 22:55 244 23.9
2017-Jun-26 22:50 244 23.9
2017-Jun-26 22:45 244 23.9
2017-Jun-26 22:40 244 0 gusting 2 23.9
2017-Jun-26 22:35 244 23.9
2017-Jun-26 22:30 244 1 gusting 2 24.4
2017-Jun-26 22:25 244 1 gusting 2 24.4
2017-Jun-26 22:20 244 0 gusting 2 24.4
2017-Jun-26 22:15 202 1 gusting 4 25.0
2017-Jun-26 22:10 248 25.0
2017-Jun-26 22:05 248 25.0
2017-Jun-26 22:00 248 25.6
2017-Jun-26 21:55 248 25.6
2017-Jun-26 21:50 248 25.6
2017-Jun-26 21:45 248 25.6
2017-Jun-26 21:40 248 25.6
2017-Jun-26 21:35 248 25.6
2017-Jun-26 21:30 248 25.6
2017-Jun-26 21:25 248 25.6
2017-Jun-26 21:20 248 25.6
2017-Jun-26 21:15 248 0 gusting 1 25.6
2017-Jun-26 21:10 248 25.6
2017-Jun-26 21:05 248 25.6
2017-Jun-26 21:00 248 0 gusting 2 25.6
2017-Jun-26 20:55 248 0 gusting 2 25.6
2017-Jun-26 20:50 248 1 gusting 2 25.6
2017-Jun-26 20:45 248 25.0
2017-Jun-26 20:40 248 25.0
2017-Jun-26 20:35 248 25.0
2017-Jun-26 20:30 248 1 gusting 2 25.0
2017-Jun-26 20:25 248 0 gusting 4 25.6
2017-Jun-26 20:20 152 25.0
2017-Jun-26 20:15 152 25.0
2017-Jun-26 20:10 152 0 gusting 2 25.0
2017-Jun-26 20:05 152 0 gusting 2 25.0
2017-Jun-26 20:00 140 25.0
2017-Jun-26 19:55 087 25.0
2017-Jun-26 19:50 074 25.0
2017-Jun-26 19:45 105 25.0
2017-Jun-26 19:40 246 25.0
2017-Jun-26 19:35 246 0 gusting 2 25.0
2017-Jun-26 19:30 246 25.0
2017-Jun-26 19:20 246 0 gusting 4 25.0
2017-Jun-26 19:15 228 1 gusting 2 25.0
2017-Jun-26 19:10 216 1 gusting 2 25.0
2017-Jun-26 19:05 213 1 gusting 4 25.0
2017-Jun-26 19:00 216 1 gusting 4 25.0
2017-Jun-26 18:55 199 2 gusting 6 25.6
2017-Jun-26 18:50 177 2 gusting 5 25.6
2017-Jun-26 18:45 214 2 gusting 6 25.6
2017-Jun-26 18:40 201 2 gusting 5 26.1
2017-Jun-26 18:35 200 0 gusting 6 26.1
2017-Jun-26 18:30 195 2 gusting 4 26.1
2017-Jun-26 18:25 177 1 gusting 4 26.1
2017-Jun-26 18:20 190 1 gusting 4 26.1
2017-Jun-26 18:15 211 1 gusting 5 26.1
2017-Jun-26 18:10 182 2 gusting 4 26.1
2017-Jun-26 18:05 182 1 gusting 4 26.7
2017-Jun-26 18:00 171 1 gusting 5 26.7
2017-Jun-26 17:55 179 2 gusting 4 26.7
2017-Jun-26 17:50 176 2 gusting 5 26.7
2017-Jun-26 17:45 189 1 gusting 2 26.7
2017-Jun-26 17:40 209 1 gusting 5 26.7
2017-Jun-26 17:35 209 2 gusting 5 26.1
2017-Jun-26 17:30 229 4 gusting 6 26.1
2017-Jun-26 17:25 184 2 gusting 6 26.7
2017-Jun-26 17:20 245 5 gusting 7 26.7
2017-Jun-26 17:15 207 5 gusting 8 26.7
2017-Jun-26 17:10 233 5 gusting 8 26.7
2017-Jun-26 17:05 192 4 gusting 8 27.2
2017-Jun-26 17:00 189 3 gusting 7 27.8
2017-Jun-26 16:55 205 3 gusting 6 27.8
2017-Jun-26 16:50 197 3 gusting 6 27.8
2017-Jun-26 16:45 187 4 gusting 6 28.3
2017-Jun-26 16:40 239 5 gusting 10 28.9
2017-Jun-26 16:35 260 5 gusting 6 29.4
2017-Jun-26 16:30 253 5 gusting 7 28.9
2017-Jun-26 16:25 247 6 gusting 8 29.4
2017-Jun-26 16:20 239 4 gusting 8 30.0
2017-Jun-26 16:15 197 4 gusting 6 29.4
2017-Jun-26 16:10 272 4 gusting 7 29.4
2017-Jun-26 16:05 215 3 gusting 6 29.4
2017-Jun-26 16:00 238 4 gusting 8 30.0
2017-Jun-26 15:55 234 4 gusting 8 30.0
2017-Jun-26 15:50 216 3 gusting 6 29.4
2017-Jun-26 15:45 221 2 gusting 6 29.4
2017-Jun-26 15:40 233 2 gusting 6 29.4
2017-Jun-26 15:35 226 4 gusting 7 28.9
2017-Jun-26 15:30 196 3 gusting 7 28.9
2017-Jun-26 15:20 202 3 gusting 8 29.4
2017-Jun-26 15:10 210 4 gusting 10 29.4
2017-Jun-26 15:05 225 4 gusting 7 29.4
2017-Jun-26 15:00 207 3 gusting 6 30.0
2017-Jun-26 14:55 211 2 gusting 8 29.4
2017-Jun-26 14:50 229 2 gusting 6 28.9
2017-Jun-26 14:45 251 4 gusting 7 28.3
2017-Jun-26 14:40 253 4 gusting 8 28.3
2017-Jun-26 14:35 218 3 gusting 6 27.8
2017-Jun-26 14:30 219 4 gusting 8 27.8
2017-Jun-26 14:25 250 2 gusting 7 27.8
2017-Jun-26 14:20 233 4 gusting 8 27.8
2017-Jun-26 14:15 247 3 gusting 6 27.2
2017-Jun-26 14:10 232 5 gusting 10 27.2
2017-Jun-26 14:05 221 4 gusting 6 27.8
2017-Jun-26 14:00 213 2 gusting 8 27.2
2017-Jun-26 13:55 180 3 gusting 8 27.2
2017-Jun-26 13:50 189 4 gusting 6 27.2
2017-Jun-26 13:45 166 4 gusting 7 27.8
2017-Jun-26 13:40 149 3 gusting 7 28.3
2017-Jun-26 13:35 218 3 gusting 7 28.3
2017-Jun-26 13:30 221 4 gusting 8 28.3
2017-Jun-26 13:25 223 2 gusting 5 28.3
2017-Jun-26 13:20 219 4 gusting 7 28.3
2017-Jun-26 13:15 217 3 gusting 7 28.3
2017-Jun-26 13:10 168 1 gusting 4 27.8
2017-Jun-26 13:05 185 2 gusting 6 27.8
2017-Jun-26 13:00 132 2 gusting 6 27.8
2017-Jun-26 12:55 165 2 gusting 5 27.8
2017-Jun-26 12:50 167 3 gusting 6 27.8
2017-Jun-26 12:45 159 4 gusting 6 27.8
2017-Jun-26 12:40 152 3 gusting 6 27.2
2017-Jun-26 12:35 198 4 gusting 8 27.2
2017-Jun-26 12:30 223 3 gusting 7 27.8
2017-Jun-26 12:25 176 2 gusting 6 27.8
2017-Jun-26 12:20 212 2 gusting 6 27.8
2017-Jun-26 12:15 243 2 gusting 6 27.8
2017-Jun-26 12:10 164 3 gusting 6 27.2
2017-Jun-26 12:05 212 3 gusting 6 27.8
2017-Jun-26 12:00 230 4 gusting 6 27.2
2017-Jun-26 11:55 241 5 gusting 7 27.2
2017-Jun-26 11:50 218 3 gusting 7 27.8
2017-Jun-26 11:45 198 3 gusting 7 27.2
2017-Jun-26 11:40 227 4 gusting 6 27.2
2017-Jun-26 11:35 206 2 gusting 6 27.2
2017-Jun-26 11:30 209 4 gusting 6 26.7
2017-Jun-26 11:25 193 4 gusting 7 27.2
2017-Jun-26 11:20 200 4 gusting 8 27.2
2017-Jun-26 11:15 197 4 gusting 6 27.8
2017-Jun-26 11:10 200 4 gusting 6 27.8
2017-Jun-26 11:05 196 2 gusting 6 27.8
2017-Jun-26 11:00 220 2 gusting 6 27.8
2017-Jun-26 10:55 216 2 gusting 6 27.8
2017-Jun-26 10:50 220 3 gusting 6 27.8
2017-Jun-26 10:45 194 2 gusting 5 27.8
2017-Jun-26 10:40 194 2 gusting 5 27.8
2017-Jun-26 10:35 236 1 gusting 4 27.8
2017-Jun-26 10:30 215 1 gusting 5 27.8
2017-Jun-26 10:25 211 2 gusting 6 27.2
2017-Jun-26 10:20 213 2 gusting 5 27.2
2017-Jun-26 10:15 222 2 gusting 4 27.2
2017-Jun-26 10:10 255 2 gusting 4 27.2
2017-Jun-26 10:05 216 2 gusting 6 27.2
2017-Jun-26 10:00 239 0 gusting 5 26.7
2017-Jun-26 09:55 219 1 gusting 4 26.7
2017-Jun-26 09:50 258 2 gusting 4 26.7
2017-Jun-26 09:45 263 2 gusting 2 26.7
2017-Jun-26 09:40 274 1 gusting 2 26.1
2017-Jun-26 09:35 262 1 gusting 2 26.1
2017-Jun-26 09:30 270 1 gusting 2 25.6
2017-Jun-26 09:25 271 0 gusting 2 25.6
2017-Jun-26 09:20 271 0 gusting 2 25.0
2017-Jun-26 09:15 271 0 gusting 2 25.0
2017-Jun-26 09:10 224 0 gusting 2 24.4
2017-Jun-26 09:05 221 0 gusting 2 24.4
2017-Jun-26 09:00 221 1 gusting 5 24.4
2017-Jun-26 08:55 202 2 gusting 5 24.4
2017-Jun-26 08:50 261 2 gusting 4 24.4
2017-Jun-26 08:45 241 1 gusting 2 24.4
2017-Jun-26 08:40 207 1 gusting 2 24.4
2017-Jun-26 08:35 214 1 gusting 2 24.4
2017-Jun-26 08:30 214 0 gusting 2 23.9
2017-Jun-26 08:25 259 0 gusting 2 23.9
2017-Jun-26 08:20 213 0 gusting 2 23.9
2017-Jun-26 08:15 221 1 gusting 2 23.9
2017-Jun-26 08:10 263 0 gusting 2 23.9
2017-Jun-26 08:05 256 1 gusting 2 23.9
2017-Jun-26 08:00 107 0 gusting 1 23.3
2017-Jun-26 07:55 107 23.3
2017-Jun-26 07:50 107 23.3
2017-Jun-26 07:45 107 23.3
2017-Jun-26 07:40 107 23.3
2017-Jun-26 07:35 107 23.3
2017-Jun-26 07:30 107 23.3
2017-Jun-26 07:25 107 22.8
2017-Jun-26 07:20 107 22.8
2017-Jun-26 07:15 107 22.8
2017-Jun-26 07:10 107 22.8
2017-Jun-26 07:05 107 22.8
2017-Jun-26 07:00 107 22.8
2017-Jun-26 06:55 099 22.8
2017-Jun-26 06:50 328 22.8
2017-Jun-26 06:45 328 23.3
2017-Jun-26 06:40 328 23.3
2017-Jun-26 06:35 328 23.3
2017-Jun-26 06:30 328 23.3
2017-Jun-26 06:25 328 23.3
2017-Jun-26 06:20 328 23.3
2017-Jun-26 06:15 328 23.3
2017-Jun-26 06:10 328 23.3
2017-Jun-26 06:05 328 22.8
2017-Jun-26 05:55 328 22.8
2017-Jun-26 05:50 328 0 gusting 2 22.8
2017-Jun-26 05:45 327 22.8
2017-Jun-26 05:40 340 22.8
2017-Jun-26 05:35 333 22.8
2017-Jun-26 05:30 117 22.8
2017-Jun-26 05:25 117 22.8
2017-Jun-26 05:20 117 22.8
2017-Jun-26 05:15 117 22.8
2017-Jun-26 05:10 117 22.2
2017-Jun-26 05:05 117 22.2
2017-Jun-26 05:00 117 22.2
2017-Jun-26 04:55 117 22.2
2017-Jun-26 04:50 117 22.2
2017-Jun-26 04:45 117 22.2
2017-Jun-26 04:40 117 22.2
2017-Jun-26 04:35 117 22.2
2017-Jun-26 04:30 117 22.2
2017-Jun-26 04:25 117 22.2
2017-Jun-26 04:20 117 22.2
2017-Jun-26 04:15 117 22.2
2017-Jun-26 04:10 117 22.2
2017-Jun-26 04:05 117 22.2
2017-Jun-26 04:00 117 22.2
2017-Jun-26 03:55 117 22.2
2017-Jun-26 03:50 117 22.2
2017-Jun-26 03:45 117 22.2
2017-Jun-26 03:40 117 22.2
2017-Jun-26 03:35 117 22.2
2017-Jun-26 03:30 117 22.2
2017-Jun-26 03:20 117 22.2
2017-Jun-26 03:15 117 22.8
2017-Jun-26 03:10 117 22.8
2017-Jun-26 03:05 117 22.8
2017-Jun-26 03:00 117 22.8
2017-Jun-26 02:55 117 22.8
2017-Jun-26 02:50 117 22.8
2017-Jun-26 02:45 117 22.8
2017-Jun-26 02:40 117 22.8
2017-Jun-26 02:30 117 22.8
2017-Jun-26 02:25 117 22.8
2017-Jun-26 02:20 117 22.8
2017-Jun-26 02:15 117 22.8
2017-Jun-26 02:10 117 22.8
2017-Jun-26 02:05 117 22.8
2017-Jun-26 02:00 117 22.8
2017-Jun-26 01:55 115 22.8
2017-Jun-26 01:50 114 22.8
2017-Jun-26 01:45 102 22.8
2017-Jun-26 01:40 102 22.8
2017-Jun-26 01:35 249 22.8
2017-Jun-26 01:30 249 22.8
2017-Jun-26 01:20 249 22.8
2017-Jun-26 01:15 249 1 gusting 2 22.8
2017-Jun-26 01:10 249 0 gusting 2 22.8
2017-Jun-26 01:00 252 1 gusting 2 22.8
2017-Jun-26 00:55 252 1 gusting 2 22.8
2017-Jun-26 00:50 250 1 gusting 2 22.8
2017-Jun-26 00:40 244 2 gusting 6 22.8
2017-Jun-26 00:35 246 1 gusting 2 22.8
2017-Jun-26 00:30 246 2 gusting 2 22.8
2017-Jun-26 00:25 236 1 gusting 4 22.8
2017-Jun-26 00:20 165 22.8
2017-Jun-26 00:15 165 22.8
2017-Jun-26 00:10 165 22.8
2017-Jun-26 00:05 165 22.8
2017-Jun-26 00:00 165 22.8
2017-Jun-25 23:55 165 0 gusting 1 22.8
2017-Jun-25 23:50 165 22.8
2017-Jun-25 23:45 165 22.8
2017-Jun-25 23:40 165 22.8
2017-Jun-25 23:35 165 23.3
2017-Jun-25 23:30 165 23.3
2017-Jun-25 23:25 165 23.3
2017-Jun-25 23:20 165 23.3
2017-Jun-25 23:15 165 23.3
2017-Jun-25 23:10 165 23.3
2017-Jun-25 23:05 165 23.3
2017-Jun-25 23:00 165 23.3
2017-Jun-25 22:55 165 23.9
2017-Jun-25 22:50 165 23.9
2017-Jun-25 22:45 165 23.9
2017-Jun-25 22:40 165 23.9
2017-Jun-25 22:35 165 23.9
2017-Jun-25 22:30 173 0 gusting 2 24.4
2017-Jun-25 22:25 175 24.4
2017-Jun-25 22:20 175 23.9
2017-Jun-25 22:15 175 1 gusting 2 23.9
2017-Jun-25 22:10 175 23.9
2017-Jun-25 22:05 175 23.9
2017-Jun-25 22:00 183 23.9
2017-Jun-25 21:55 183 23.9
2017-Jun-25 21:50 183 23.9
2017-Jun-25 21:45 183 0 gusting 1 23.9
2017-Jun-25 21:40 183 0 gusting 1 23.9
2017-Jun-25 21:35 236 23.9
2017-Jun-25 21:30 236 23.9
2017-Jun-25 21:25 236 23.9
2017-Jun-25 21:20 236 23.9
2017-Jun-25 21:15 236 23.9
2017-Jun-25 21:10 236 0 gusting 2 24.4
2017-Jun-25 21:05 236 0 gusting 2 24.4
2017-Jun-25 21:00 153 0 gusting 2 24.4
2017-Jun-25 20:55 254 2 gusting 2 24.4
2017-Jun-25 20:50 254 1 gusting 2 24.4
2017-Jun-25 20:45 254 0 gusting 2 24.4
2017-Jun-25 20:40 254 0 gusting 2 24.4
2017-Jun-25 20:35 254 0 gusting 2 24.4
2017-Jun-25 20:30 254 2 gusting 6 24.4
2017-Jun-25 20:25 265 3 gusting 6 24.4
2017-Jun-25 20:20 244 4 gusting 5 24.4
2017-Jun-25 20:15 259 5 gusting 7 24.4
2017-Jun-25 20:10 267 5 gusting 8 25.0
2017-Jun-25 20:05 256 5 gusting 8 25.0
2017-Jun-25 20:00 246 5 gusting 7 25.0
2017-Jun-25 19:55 253 4 gusting 6 25.6
2017-Jun-25 19:50 242 4 gusting 6 25.6
2017-Jun-25 19:45 258 4 gusting 6 25.6
2017-Jun-25 19:40 262 4 gusting 6 25.6
2017-Jun-25 19:35 259 3 gusting 4 25.6
2017-Jun-25 19:30 234 1 gusting 4 25.6
2017-Jun-25 19:25 252 3 gusting 5 25.6
2017-Jun-25 19:20 197 1 gusting 2 25.6
2017-Jun-25 19:15 197 0 gusting 4 25.6
2017-Jun-25 19:10 172 0 gusting 2 26.1
2017-Jun-25 19:05 160 0 gusting 2 26.1
2017-Jun-25 19:00 160 26.7
2017-Jun-25 18:55 160 0 gusting 2 26.7
2017-Jun-25 18:50 160 26.7
2017-Jun-25 18:45 153 0 gusting 2 26.7
2017-Jun-25 18:40 137 0 gusting 2 27.2
2017-Jun-25 18:35 137 27.2
2017-Jun-25 18:30 137 26.7
2017-Jun-25 18:25 137 26.7
2017-Jun-25 18:20 137 26.7
2017-Jun-25 18:15 137 26.7
2017-Jun-25 18:10 156 0 gusting 5 26.7
2017-Jun-25 18:05 162 0 gusting 2 26.7
2017-Jun-25 18:00 099 0 gusting 4 26.7
2017-Jun-25 17:55 159 1 gusting 2 27.2
2017-Jun-25 17:50 145 27.2
2017-Jun-25 17:45 117 26.7
2017-Jun-25 17:40 154 0 gusting 2 26.7
2017-Jun-25 17:35 157 0 gusting 2 26.7
2017-Jun-25 17:30 138 0 gusting 2 26.7
2017-Jun-25 17:25 146 0 gusting 2 26.7
2017-Jun-25 17:20 158 26.7
2017-Jun-25 17:15 158 26.7
2017-Jun-25 17:10 137 1 gusting 6 26.7
2017-Jun-25 17:05 126 2 gusting 5 26.7
2017-Jun-25 17:00 107 0 gusting 4 26.7
2017-Jun-25 16:55 126 0 gusting 5 26.7
2017-Jun-25 16:50 098 1 gusting 2 26.1
2017-Jun-25 16:45 126 2 gusting 4 26.1
2017-Jun-25 16:40 152 0 gusting 2 25.6
2017-Jun-25 16:35 148 1 gusting 6 25.6
2017-Jun-25 16:30 190 25.0
2017-Jun-25 16:25 182 1 gusting 5 25.0
2017-Jun-25 16:20 229 2 gusting 6 25.0
2017-Jun-25 16:15 251 4 gusting 6 24.4
2017-Jun-25 16:10 221 5 gusting 7 24.4
2017-Jun-25 16:05 255 5 gusting 7 25.0
2017-Jun-25 16:00 234 5 gusting 7 25.0
2017-Jun-25 15:55 248 5 gusting 10 25.0
2017-Jun-25 15:50 251 7 gusting 12 25.0
2017-Jun-25 15:45 267 6 gusting 11 26.1
2017-Jun-25 15:40 197 5 gusting 8 26.7
2017-Jun-25 15:30 217 3 gusting 5 26.7
2017-Jun-25 15:20 241 2 gusting 6 26.1
2017-Jun-25 15:15 246 0 gusting 6 25.6
2017-Jun-25 15:10 226 1 gusting 5 25.6
2017-Jun-25 15:05 234 4 gusting 6 25.6
2017-Jun-25 15:00 204 4 gusting 7 25.6
2017-Jun-25 14:55 224 5 gusting 7 25.6
2017-Jun-25 14:50 234 5 gusting 7 26.1
2017-Jun-25 14:45 194 5 gusting 8 26.7
2017-Jun-25 14:40 206 4 gusting 7 27.2
2017-Jun-25 14:35 145 3 gusting 6 27.8
2017-Jun-25 14:30 164 2 gusting 6 27.8
2017-Jun-25 14:25 197 2 gusting 7 27.8
2017-Jun-25 14:20 171 2 gusting 6 27.8
2017-Jun-25 14:15 147 0 gusting 2 27.8
2017-Jun-25 14:10 102 1 gusting 5 27.2
2017-Jun-25 14:05 180 1 gusting 2 27.2
2017-Jun-25 14:00 277 2 gusting 6 26.7
2017-Jun-25 13:55 237 5 gusting 7 26.7
2017-Jun-25 13:50 258 4 gusting 8 27.2
2017-Jun-25 13:45 247 5 gusting 8 27.2
2017-Jun-25 13:40 215 2 gusting 6 27.2
2017-Jun-25 13:35 244 6 gusting 10 27.2
2017-Jun-25 13:30 238 2 gusting 7 27.2
2017-Jun-25 13:25 258 5 gusting 8 26.7
2017-Jun-25 13:20 223 4 gusting 8 26.7
2017-Jun-25 13:15 234 4 gusting 7 26.1
2017-Jun-25 13:10 238 4 gusting 7 25.6
2017-Jun-25 13:05 216 3 gusting 6 25.6
2017-Jun-25 13:00 228 2 gusting 5 25.0
2017-Jun-25 12:55 230 2 gusting 4 25.0
2017-Jun-25 12:50 234 25.0
2017-Jun-25 12:45 234 2 gusting 5 24.4
2017-Jun-25 12:40 227 4 gusting 6 24.4
2017-Jun-25 12:35 222 5 gusting 6 25.0
2017-Jun-25 12:30 233 2 gusting 10 25.0
2017-Jun-25 12:25 221 6 gusting 10 25.6
2017-Jun-25 12:20 199 4 gusting 8 25.6
2017-Jun-25 12:15 226 3 gusting 6 26.1
2017-Jun-25 12:10 253 2 gusting 6 26.1
2017-Jun-25 12:05 246 1 gusting 6 26.1
2017-Jun-25 12:00 219 2 gusting 5 26.1
2017-Jun-25 11:55 227 2 gusting 6 26.1
2017-Jun-25 11:50 192 1 gusting 5 26.7
2017-Jun-25 11:45 190 1 gusting 6 26.7
2017-Jun-25 11:40 178 2 gusting 5 26.7
2017-Jun-25 11:35 189 2 gusting 5 26.7
2017-Jun-25 11:30 219 2 gusting 5 26.7
2017-Jun-25 11:25 192 1 gusting 5 26.7
2017-Jun-25 11:20 166 4 gusting 8 26.1
2017-Jun-25 11:15 203 4 gusting 6 26.1
2017-Jun-25 11:10 205 3 gusting 6 26.1
2017-Jun-25 11:05 199 2 gusting 6 26.1
2017-Jun-25 11:00 250 1 gusting 5 26.1
2017-Jun-25 10:55 226 3 gusting 6 26.1
2017-Jun-25 10:50 355 0 gusting 4 26.1
2017-Jun-25 10:45 216 3 gusting 6 26.1
2017-Jun-25 10:40 262 4 gusting 7 26.7
2017-Jun-25 10:35 191 2 gusting 4 26.7
2017-Jun-25 10:30 154 1 gusting 4 26.7
2017-Jun-25 10:25 206 1 gusting 6 26.7
2017-Jun-25 10:20 254 4 gusting 7 26.7
2017-Jun-25 10:15 189 4 gusting 7 27.8
2017-Jun-25 10:10 201 3 gusting 6 28.3
2017-Jun-25 10:05 207 2 gusting 6 28.3
2017-Jun-25 10:00 186 1 gusting 2 28.3
2017-Jun-25 09:55 151 27.8
2017-Jun-25 09:50 148 27.8
2017-Jun-25 09:45 148 27.2
2017-Jun-25 09:40 148 0 gusting 1 27.2
2017-Jun-25 09:35 148 26.7
2017-Jun-25 09:30 148 26.7
2017-Jun-25 09:25 148 26.7
2017-Jun-25 09:20 070 26.7
2017-Jun-25 09:15 112 26.7
2017-Jun-25 09:10 139 26.1
2017-Jun-25 09:05 140 25.6
2017-Jun-25 09:00 030 25.6
2017-Jun-25 08:55 030 25.6
2017-Jun-25 08:50 254 25.6
2017-Jun-25 08:45 254 25.0
2017-Jun-25 08:40 254 25.0
2017-Jun-25 08:35 254 25.0
2017-Jun-25 08:30 254 25.0
2017-Jun-25 08:25 254 24.4
2017-Jun-25 08:20 254 24.4
2017-Jun-25 08:15 254 24.4
2017-Jun-25 08:10 254 0 gusting 2 24.4
2017-Jun-25 08:05 254 1 gusting 2 23.9
2017-Jun-25 08:00 254 1 gusting 2 23.9